Location: Dąbrówka
(52.2799°N, 15.8070°E)
Time: 10:47:36
(UTC+01:00)

ISS - Pass Details

Date: 31 January 2019
Orbit: 403 x 411 km, 51.6° (Epoch: 22 February)

Event Time Altitude Azimuth Distance (km) Brightness Sun altitude
Rises 18:09:29 0° 263° (W) 2,334 2.0 -13.5°
Reaches altitude 10° 18:11:34 10° 263° (W) 1,475 0.5 -13.8°
Maximum altitude 18:14:52 81° 176° (S) 421 -3.8 -14.3°
Enters shadow 18:16:20 31° 92° (E) 752 -3.0 -14.5°
